Tracking 19709 objects as of 17-Jun-2019
HD Live streaming from Space Station
objects crossing your sky now

SL-8 DEB *

Track SL-8 DEB * now!
10-day predictions


NORAD ID: 3931
Int'l Code: 1965-020EV
Perigee: 1,381.0 km
Apogee: 1,687.9 km
Inclination: 56.1 °
Period: 116.6 minutes
Semi major axis: 7905 km
RCS: 0.0346 m2 (small)
Launch date: March 15, 1965
Source: Commonwealth of Independent States (former USSR) (CIS)
Launch site: TYURATAM MISSILE AND SPACE COMPLEX (TTMTR)

Note: This is SATELLITE DEBRIS
aabbcc
Your satellite tracking list
Your tracking list is empty




NASA's NSSDC Master Catalog

Two Line Element Set (TLE):
1  3931U 65020EV  19167.27566174 -.00000107 +00000-0 -11949-3 0  9998
2  3931 056.0627 099.1031 0194077 331.4184 187.5025 12.35124966461120
Source of the keplerian elements: AFSPC